[[{"header":{"parameterUnit":"m.s-1","parameterCategory":1,"la1":30.2991,"la2":30.254,"lo1":-89.0895,"lo2":-89.0444,"dy":0.0017,"dx":0.0017,"nx":28,"ny":28,"refTime":"2023-09-18T21:00:00:Z","depth":0,"parameterNumber":2,"parameterNumberName":"U-component_of_WINDS"},"data":[0,0,0,0,0,0,0,0,0,0,0,0,0,0,0,0,0,0,0,0,0,0,0,0,0,0,0,0,0,0,0,0,0,0,0,0,0,0,0,0,0,0,0,0,0,0,0,0,0,0,0,0,0,0,0,0,0,0,-3.4993,-3.4994,0,-3.5136,-3.5137,-3.5139,-3.5038,-3.5034,-3.5029,-3.5025,-3.5189,-3.5197,-3.5206,0,0,0,0,0,0,0,0,0,0,0,0,0,-3.4653,-3.466,-3.4992,-3.4994,-3.4996,-3.5135,-3.5137,-3.5139,-3.5039,-3.5034,-3.5028,-3.5023,-3.5186,-3.5196,-3.5207,0,0,0,0,0,0,0,0,0,0,0,0,0,-3.4799,-3.4662,-3.4992,-3.4962,-3.4961,-3.5135,-3.5137,-3.514,-3.504,-3.5033,-3.5027,-3.502,-3.5183,-3.5195,-3.5208,-3.5425,0,0,-3.5248,-3.5253,0,0,0,0,0,0,0,0,-3.4791,-3.4812,-3.4965,-3.4965,-3.4963,-3.5062,-3.5078,-3.5236,-3.5042,-3.5011,-3.5025,-3.5017,-3.5153,-3.5168,-3.5211,-3.5432,-3.5439,-3.5249,-3.5257,-3.5262,-3.5266,0,0,0,0,0,0,0,-3.4781,-3.4805,-3.505,-3.4967,-3.4967,-3.4949,-3.4962,-3.5107,-3.5119,-3.5013,-3.5006,-3.5023,-3.5152,-3.5198,-3.5214,-3.5442,-3.5248,-3.526,-3.5268,-3.5273,-3.5857,-3.5864,0,0,0,0,0,0,-3.4771,-3.4797,-3.5045,-3.5054,-3.4858,-3.496,-3.4975,-3.5038,-3.5117,-3.5122,-3.5029,-3.5018,-3.518,-3.5199,-3.5219,-3.5482,-3.5262,-3.5274,-3.5281,-3.5849,-3.5859,-3.5867,0,0,0,0,0,0,-3.4764,-3.4794,-3.5039,-3.4924,-3.4953,-3.4973,-3.5044,-3.5044,-3.509,-3.5129,-3.5133,-3.5073,-3.5175,-3.5201,-3.5375,-3.5486,-3.528,-3.5292,-3.584,-3.5852,-3.5863,-3.6007,0,0,0,0,0,0,-3.4755,-3.4792,-3.4869,-3.4926,-3.496,-3.5186,-3.5051,-3.5052,-3.511,-3.5098,-3.5171,-3.5177,-3.5172,-3.5356,-3.5388,-3.55,-3.5302,-3.583,-3.5845,-3.5859,-3.5992,-3.6022,-3.6048,0,0,0,0,0,-3.4743,-3.4906,-3.4873,-3.4904,-3.5055,-3.5192,-3.5213,-3.5198,-3.512,-3.5201,-3.5228,-3.5175,-3.5469,-3.5375,-3.5409,-3.5528,-3.5823,-3.5841,-3.5858,-3.598,-3.6016,-3.6047,0,0,0,0,0,0,-3.4866,-3.4913,-3.4877,-3.5062,-3.5124,-3.5175,-3.5276,-3.5236,-3.5325,-3.531,-3.5294,-3.5312,-3.5495,-3.5529,-3.5423,-3.5746,-3.5635,-3.566,-3.5716,-3.575,-3.5777,-3.5766,-3.5312,0,0,0,0,0,-3.4913,-3.5014,-3.5053,-3.5213,-3.5245,-3.5256,-3.5315,-3.5299,-3.5364,-3.5391,-3.543,-3.5501,-3.561,-3.5682,-3.5784,-3.5998,-3.6016,-3.6097,-3.6125,-3.6147,-3.617,-3.6292,-3.633,-3.5924,-3.5924,-3.5924,0,0,-3.5015,-3.5053,-3.5118,-3.5239,-3.5284,-3.5397,-3.5279,-3.5401,-3.5486,-3.5412,-3.5577,-3.561,-3.5689,-3.5884,-3.5973,-3.5919,-3.6286,-3.6169,-3.6187,-3.6197,-3.6314,-3.6352,-3.6387,-3.5936,-3.5934,-3.5932,0,0,-3.5256,-3.5293,-3.5432,-3.5481,-3.5551,-3.5558,-3.5592,-3.5651,-3.5668,-3.5833,-3.5782,-3.5888,-3.6073,-3.6133,-3.6188,-3.6461,-3.6418,-3.6495,-3.664,-3.6759,-3.6791,-3.682,-3.6922,-3.6958,-3.6518,-3.6518,-3.6518,0,-3.5375,-3.5534,-3.5511,-3.5638,-3.5696,-3.563,-3.5776,-3.5827,-3.5929,-3.5974,-3.5911,-3.6147,-3.6195,-3.6407,-3.6474,-3.6519,-3.6564,-3.6486,-3.6787,-3.6816,-3.6842,-3.6939,-3.6977,-3.6527,-3.6526,-3.6525,-3.6524,0,-3.5679,-3.5792,-3.5898,-3.5994,-3.6064,-3.62,-3.6205,-3.628,-3.626,-3.6277,-3.6451,-3.6507,-3.6622,-3.6672,-3.6654,-3.6884,-3.6849,-3.6787,-3.6676,-3.689,-3.6981,-3.7018,-3.654,-3.6537,-3.6534,-3.6532,0,0,-3.5998,-3.6082,-3.6122,-3.6167,-3.6243,-3.6333,-3.6471,-3.6579,-3.6647,-3.6722,-3.6841,-3.7003,-3.6948,-3.7011,-3.7001,-3.7106,-3.7325,-3.7032,-3.7034,-3.7088,-3.7589,-3.7636,-3.7679,-3.7297,-3.7304,-3.731,-3.7584,0,-3.6246,-3.6478,-3.6465,-3.6686,-3.6795,-3.6738,-3.6859,-3.6923,-3.6944,-3.7045,-3.7071,-3.7188,-3.7103,-3.7142,-3.7243,-3.7276,-3.7426,-3.7256,-3.7415,-3.7421,-3.7397,-3.7726,-3.7775,-3.803,-3.7619,-3.7625,-3.7629,0,-3.6564,-3.6647,-3.6878,-3.6943,-3.6988,-3.7096,-3.7197,-3.7292,-3.7368,-3.7376,-3.7449,-3.7424,-3.7572,-3.7457,-3.7665,-3.755,-3.7616,-3.7644,-3.7653,-3.7669,-3.7538,-3.7754,-3.8111,-3.815,-3.7684,-3.768,-3.7676,0,-3.6779,-3.6949,-3.711,-3.715,-3.7229,-3.7307,-3.7345,-3.7412,-3.7481,-3.7572,-3.7618,-3.7728,-3.7789,-3.7878,-3.7887,-3.7801,-3.8099,-3.7983,-3.8117,-3.8117,-3.8182,-3.8178,-3.8558,-3.8221,-3.8221,-3.822,-3.8219,0,-3.7058,-3.7202,-3.7207,-3.7307,-3.7471,-3.7458,-3.7623,-3.7654,-3.7716,-3.7827,-3.7787,-3.7893,-3.7897,-3.8008,-3.8017,-3.8192,-3.822,-3.8236,-3.8237,-3.8241,-3.8239,-3.8284,-3.8268,-3.823,-3.8228,-3.8226,-3.8224,0,-3.7323,-3.7332,-3.7505,-3.7565,-3.7585,-3.7703,-3.7759,-3.7858,-3.7877,-3.8018,-3.8051,-3.8084,-3.8214,-3.8231,-3.8384,-3.839,-3.8602,-3.8583,-3.8574,-3.8572,-3.8706,-3.8695,-3.913,-3.9189,-3.8811,-3.8815,-3.8818,0,-3.7501,-3.7611,-3.7684,-3.7752,-3.7793,-3.7905,-3.7974,-3.7969,-3.8044,-3.8142,-3.8232,-3.8356,-3.8455,-3.8668,-3.871,-3.8829,-3.8815,-3.8959,-3.8833,-3.8835,-3.8822,-3.8816,-3.883,-3.8984,-3.8988,-3.8991,-3.8994,0,-3.7817,-3.7817,-3.7914,-3.8017,-3.8099,-3.818,-3.8257,-3.8318,-3.8324,-3.8412,-3.8542,-3.8619,-3.8775,-3.8903,-3.9021,-3.9069,-3.9037,-3.9034,-3.9072,-3.9077,-3.9069,-3.9079,-3.8644,-3.9024,-3.9021,-3.9019,-3.9017,-3.9016,-3.8047,-3.8144,-3.8211,-3.8324,-3.8381,-3.8454,-3.8551,-3.8583,-3.8689,-3.8812,-3.8805,-3.895,-3.9032,-3.9187,-3.9243,-3.9362,-3.9316,-3.9369,-3.9384,-3.9398,-3.9413,-3.9049,-3.9384,-3.9383,-3.9382,-3.9381,-3.9381,0,-3.8364,-3.8405,-3.8509,-3.8616,-3.8707,-3.8663,-3.8748,-3.8829,-3.8955,-3.903,-3.9129,-3.9283,-3.9408,-3.9462,-3.9586,-3.9672,-3.9661,-3.9706,-3.9701,-3.9714,-3.9445,-3.9401,-3.9713,-3.9713,-3.9713,-3.9713,-3.9713,-3.9713,-3.8539,-3.8703,-3.8712,-3.8907,-3.8949,-3.9087,-3.914,-3.9211,-3.9272,-3.9443,-3.9545,-3.9577,-3.9647,-3.9778,-3.9894,-3.9907,-3.9957,-4.0009,-4.0017,-3.9765,-3.9732,-3.97,-3.9658,-4.0019,-4.002,-4.0276,-4.0278,-4.028]},{"header":{"parameterUnit":"m.s-1","parameterCategory":1,"la1":30.2991,"la2":30.254,"lo1":-89.0895,"lo2":-89.0444,"dy":0.0017,"dx":0.0017,"nx":28,"ny":28,"refTime":"2023-09-18T21:00:00:Z","depth":0,"parameterNumber":3,"parameterNumberName":"V-component_of_WINDS"},"data":[0,0,0,0,0,0,0,0,0,0,0,0,0,0,0,0,0,0,0,0,0,0,0,0,0,0,0,0,0,0,0,0,0,0,0,0,0,0,0,0,0,0,0,0,0,0,0,0,0,0,0,0,0,0,0,0,0,0,-1.1248,-1.1246,0,-1.1124,-1.1122,-1.1121,-1.0986,-1.0984,-1.0982,-1.0981,-1.0854,-1.0853,-1.0851,0,0,0,0,0,0,0,0,0,0,0,0,0,-1.1367,-1.1366,-1.1248,-1.1246,-1.1245,-1.1124,-1.1122,-1.112,-1.0987,-1.0984,-1.0982,-1.098,-1.0855,-1.0853,-1.0851,0,0,0,0,0,0,0,0,0,0,0,0,0,-1.1287,-1.1365,-1.1248,-1.1163,-1.1155,-1.1124,-1.1122,-1.112,-1.0987,-1.0984,-1.0981,-1.0979,-1.0855,-1.0853,-1.0851,-1.0894,0,0,-1.0844,-1.0843,0,0,0,0,0,0,0,0,-1.1291,-1.1282,-1.1177,-1.1169,-1.1159,-1.1067,-1.1118,-1.1044,-1.0988,-1.1051,-1.0981,-1.0977,-1.0928,-1.0919,-1.0902,-1.0888,-1.0883,-1.0843,-1.0842,-1.0841,-1.084,0,0,0,0,0,0,0,-1.1297,-1.1287,-1.1199,-1.1176,-1.1165,-1.1131,-1.1116,-1.1103,-1.1007,-1.1045,-1.1035,-1.1022,-1.0922,-1.0905,-1.0898,-1.0881,-1.0844,-1.0841,-1.084,-1.0839,-1.0893,-1.0896,0,0,0,0,0,0,-1.1316,-1.1293,-1.1203,-1.1195,-1.122,-1.1131,-1.1115,-1.11,-1.1007,-1.099,-1.1025,-1.1016,-1.091,-1.0901,-1.0893,-1.0936,-1.0841,-1.0839,-1.0837,-1.089,-1.0894,-1.0897,0,0,0,0,0,0,-1.1319,-1.1309,-1.1208,-1.1241,-1.1225,-1.1132,-1.1117,-1.1099,-1.1081,-1.0991,-1.0973,-1.1025,-1.0908,-1.0897,-1.0894,-1.093,-1.0838,-1.0836,-1.0887,-1.0891,-1.0895,-1.1023,0,0,0,0,0,0,-1.1323,-1.1311,-1.1327,-1.1242,-1.1224,-1.1212,-1.1119,-1.1099,-1.1078,-1.1066,-1.0987,-1.0971,-1.0905,-1.0898,-1.0892,-1.0925,-1.0834,-1.0883,-1.0889,-1.0894,-1.1015,-1.1031,-1.1045,0,0,0,0,0,-1.1328,-1.1369,-1.1329,-1.1319,-1.1243,-1.1214,-1.1203,-1.1126,-1.1081,-1.1096,-1.1037,-1.0973,-1.0927,-1.0899,-1.0891,-1.0924,-1.0881,-1.0887,-1.0893,-1.1009,-1.1028,-1.1044,0,0,0,0,0,0,-1.1461,-1.1356,-1.1311,-1.1326,-1.128,-1.1191,-1.1208,-1.115,-1.1116,-1.1106,-1.1011,-1.0994,-1.1003,-1.0963,-1.0934,-1.0959,-1.0894,-1.0899,-1.0985,-1.1003,-1.1017,-1.1026,-1.0832,0,0,0,0,0,-1.1492,-1.1478,-1.1387,-1.1409,-1.1388,-1.1303,-1.1287,-1.1231,-1.118,-1.116,-1.1101,-1.1054,-1.1027,-1.1013,-1.0984,-1.1009,-1.0988,-1.1027,-1.1041,-1.1054,-1.1059,-1.1067,-1.1082,-1.0918,-1.0918,-1.0917,0,0,-1.1557,-1.1498,-1.1495,-1.1435,-1.1392,-1.1379,-1.1287,-1.1278,-1.1266,-1.1158,-1.1152,-1.1107,-1.1047,-1.1058,-1.106,-1.1025,-1.11,-1.1062,-1.1073,-1.1071,-1.1075,-1.109,-1.1104,-1.0922,-1.0921,-1.0921,0,0,-1.1667,-1.1622,-1.1634,-1.1593,-1.1529,-1.1471,-1.1475,-1.1394,-1.136,-1.1352,-1.127,-1.1255,-1.1213,-1.1173,-1.1148,-1.124,-1.1179,-1.1233,-1.131,-1.1318,-1.1331,-1.1342,-1.1374,-1.1386,-1.1239,-1.1239,-1.1239,0,-1.1755,-1.1732,-1.1648,-1.1642,-1.1617,-1.1518,-1.1529,-1.1493,-1.1424,-1.1409,-1.1371,-1.1314,-1.1267,-1.1266,-1.1288,-1.1271,-1.127,-1.1242,-1.1336,-1.1346,-1.1355,-1.1384,-1.1396,-1.1246,-1.1245,-1.1245,-1.1244,0,-1.1842,-1.1827,-1.1845,-1.1779,-1.1756,-1.176,-1.1675,-1.1661,-1.1607,-1.1553,-1.1544,-1.1484,-1.144,-1.1436,-1.1383,-1.1426,-1.1406,-1.1354,-1.1287,-1.1379,-1.1405,-1.1415,-1.1256,-1.1254,-1.1251,-1.125,0,0,-1.2035,-1.1921,-1.1929,-1.1896,-1.1818,-1.1804,-1.1802,-1.1758,-1.1748,-1.1703,-1.1698,-1.1663,-1.1613,-1.1584,-1.1526,-1.1533,-1.1607,-1.1479,-1.1476,-1.1504,-1.1648,-1.1688,-1.1702,-1.1566,-1.1568,-1.1569,-1.1653,0,-1.213,-1.212,-1.2043,-1.2054,-1.2038,-1.1942,-1.1939,-1.189,-1.1839,-1.1817,-1.176,-1.1737,-1.1673,-1.1655,-1.1658,-1.1598,-1.1635,-1.1591,-1.1559,-1.1559,-1.1577,-1.1716,-1.1758,-1.184,-1.1662,-1.1664,-1.1665,0,-1.2241,-1.2201,-1.2211,-1.213,-1.212,-1.212,-1.2072,-1.2053,-1.1995,-1.1956,-1.1923,-1.1856,-1.1847,-1.1784,-1.1768,-1.174,-1.1722,-1.1691,-1.1692,-1.1686,-1.1618,-1.1712,-1.1864,-1.1877,-1.168,-1.1679,-1.1678,0,-1.2378,-1.2328,-1.2326,-1.2302,-1.2208,-1.2209,-1.217,-1.2109,-1.2087,-1.2045,-1.2029,-1.1988,-1.1965,-1.1933,-1.1857,-1.1818,-1.1849,-1.1781,-1.1816,-1.1818,-1.1827,-1.1828,-1.1978,-1.1818,-1.1817,-1.1817,-1.1817,0,-1.2493,-1.2502,-1.2386,-1.2386,-1.2392,-1.2303,-1.2312,-1.2263,-1.2209,-1.2196,-1.2111,-1.2101,-1.2,-1.1978,-1.1918,-1.1913,-1.1904,-1.1872,-1.1856,-1.1879,-1.1883,-1.1866,-1.1858,-1.182,-1.182,-1.1819,-1.1818,0,-1.2648,-1.2571,-1.2562,-1.2473,-1.2451,-1.246,-1.2383,-1.2378,-1.2321,-1.2305,-1.2296,-1.2206,-1.2175,-1.2096,-1.2045,-1.2004,-1.2015,-1.1986,-1.2035,-1.2024,-1.2064,-1.2061,-1.2208,-1.2222,-1.2055,-1.2056,-1.2058,0,-1.2726,-1.273,-1.2641,-1.2626,-1.259,-1.2568,-1.2544,-1.2455,-1.2434,-1.2367,-1.2369,-1.2331,-1.2296,-1.2251,-1.2181,-1.2141,-1.2109,-1.2163,-1.2102,-1.2125,-1.2108,-1.2109,-1.2108,-1.2177,-1.2179,-1.2181,-1.2182,0,-1.2871,-1.2832,-1.2802,-1.2758,-1.2732,-1.2693,-1.2649,-1.2641,-1.2541,-1.2522,-1.2489,-1.2462,-1.2408,-1.2371,-1.2319,-1.2277,-1.2213,-1.2202,-1.2208,-1.2232,-1.2259,-1.2243,-1.207,-1.2199,-1.2197,-1.2196,-1.2195,-1.2195,-1.2989,-1.2988,-1.2924,-1.2893,-1.285,-1.281,-1.28,-1.2741,-1.2712,-1.2661,-1.261,-1.2582,-1.2521,-1.2444,-1.2407,-1.2383,-1.235,-1.2359,-1.2361,-1.2364,-1.2374,-1.2264,-1.2373,-1.2373,-1.2372,-1.2372,-1.2371,0,-1.3129,-1.3083,-1.3055,-1.2995,-1.297,-1.2911,-1.2858,-1.2841,-1.2817,-1.2766,-1.2732,-1.2693,-1.2656,-1.2582,-1.2538,-1.2533,-1.2502,-1.2524,-1.2523,-1.2514,-1.2407,-1.2406,-1.2549,-1.2549,-1.2549,-1.2549,-1.2549,-1.2549,-1.3199,-1.3194,-1.3147,-1.3118,-1.3071,-1.3043,-1.3018,-1.298,-1.2938,-1.2898,-1.2867,-1.2818,-1.2757,-1.2707,-1.267,-1.2649,-1.2636,-1.2668,-1.2638,-1.2539,-1.2522,-1.2506,-1.2504,-1.2666,-1.2666,-1.2746,-1.2747,-1.2747]}]]